[[{"header":{"parameterUnit":"m.s-1","parameterCategory":2,"la1":30.2991,"la2":30.254,"lo1":-89.0895,"lo2":-89.0444,"dy":0.0017,"dx":0.0017,"nx":28,"ny":28,"refTime":"2023-09-08T21:00:00:Z","depth":"0","parameterNumber":2,"parameterNumberName":"U-component_of_CURRENTS"},"data":[0,0,0,0,0,0,0,0,0,0,0,0,0,0,0,0,0,0,0,0,0,0,0,0,0,0,0,0,0,0,0,0,0,0,0,0,0,0,0,0,0,0,0,0,0,0,0,0,0,0,0,0,0,0,0,0,0,0,0.3652,0.3653,0,0.3703,0.3703,0.3704,0.3711,0.3711,0.3711,0.3711,0.3674,0.3673,0.3672,0,0,0,0,0,0,0,0,0,0,0,0,0,0.3546,0.3547,0.3652,0.3653,0.3654,0.3703,0.3703,0.3704,0.3711,0.3711,0.3711,0.3711,0.3675,0.3674,0.3672,0,0,0,0,0,0,0,0,0,0,0,0,0,0.3588,0.3548,0.3651,0.3668,0.3671,0.3703,0.3703,0.3704,0.3711,0.3711,0.3711,0.3711,0.3675,0.3674,0.3672,0.3658,0,0,0.3667,0.3666,0,0,0,0,0,0,0,0,0.3585,0.3591,0.3665,0.3667,0.367,0.3707,0.3653,0.3686,0.3711,0.3689,0.3711,0.3711,0.3681,0.3679,0.368,0.3657,0.3655,0.3667,0.3666,0.3665,0.3665,0,0,0,0,0,0,0,0.3583,0.3589,0.3665,0.3666,0.367,0.367,0.3675,0.3659,0.3676,0.3691,0.3693,0.3709,0.3681,0.3682,0.3679,0.3655,0.3667,0.3666,0.3665,0.3664,0.3703,0.3705,0,0,0,0,0,0,0.359,0.3586,0.3664,0.3668,0.3635,0.3672,0.3678,0.3689,0.3679,0.368,0.3709,0.3709,0.3685,0.3681,0.3678,0.3733,0.3665,0.3664,0.3663,0.3701,0.3704,0.3706,0,0,0,0,0,0,0.3588,0.3596,0.3662,0.3633,0.3643,0.3674,0.3687,0.369,0.37,0.3695,0.3693,0.3716,0.3685,0.368,0.3689,0.3729,0.3663,0.3661,0.3699,0.3702,0.3705,0.3797,0,0,0,0,0,0,0.3584,0.3595,0.3599,0.3634,0.3645,0.3694,0.3688,0.3692,0.3712,0.3713,0.37,0.3697,0.3684,0.3692,0.3688,0.3725,0.366,0.3696,0.37,0.3704,0.3791,0.3802,0.3812,0,0,0,0,0,0.358,0.359,0.3598,0.3608,0.3651,0.3696,0.3701,0.3719,0.3713,0.3724,0.3724,0.3698,0.3713,0.3692,0.3686,0.3725,0.3694,0.3699,0.3704,0.3786,0.38,0.3812,0,0,0,0,0,0,0.3547,0.3594,0.3603,0.3626,0.3665,0.37,0.3712,0.3723,0.373,0.3727,0.3712,0.371,0.3737,0.3716,0.3692,0.375,0.3704,0.3707,0.3769,0.3781,0.3792,0.3814,0.3659,0,0,0,0,0,0.3543,0.356,0.361,0.3629,0.3649,0.3678,0.3695,0.3713,0.3731,0.3735,0.3729,0.373,0.375,0.3753,0.3755,0.3773,0.3784,0.3799,0.3809,0.3818,0.3835,0.3885,0.3902,0.3721,0.3721,0.3721,0,0,0.3539,0.3565,0.3576,0.3623,0.3648,0.369,0.3687,0.3722,0.3757,0.3727,0.3754,0.376,0.3763,0.3799,0.381,0.3786,0.388,0.3824,0.3832,0.3844,0.3892,0.3909,0.3925,0.3724,0.3723,0.3723,0,0,0.3547,0.3561,0.3584,0.3619,0.3669,0.3694,0.3708,0.3748,0.3765,0.3797,0.38,0.3836,0.3834,0.387,0.3883,0.395,0.3933,0.3945,0.4015,0.4064,0.4079,0.4093,0.4146,0.4164,0.3951,0.3951,0.3951,0,0.3541,0.3581,0.3599,0.3637,0.3673,0.37,0.3745,0.377,0.3808,0.383,0.3815,0.3876,0.3879,0.3955,0.3994,0.3976,0.3997,0.3965,0.4078,0.4092,0.4104,0.4155,0.4174,0.3956,0.3955,0.3955,0.3954,0,0.3575,0.3611,0.363,0.3688,0.3722,0.3767,0.3815,0.384,0.3858,0.389,0.3955,0.3977,0.4015,0.4036,0.4039,0.4138,0.4124,0.4085,0.4046,0.4128,0.4177,0.4194,0.3963,0.3961,0.396,0.3958,0,0,0.355,0.3641,0.3645,0.3684,0.3757,0.3787,0.3845,0.3913,0.3949,0.3993,0.4054,0.4125,0.4137,0.4156,0.4171,0.4232,0.4352,0.4207,0.4207,0.4261,0.4471,0.4375,0.4385,0.4329,0.4332,0.4334,0.4476,0,0.3578,0.3657,0.3695,0.3769,0.3818,0.3861,0.391,0.3966,0.4008,0.4065,0.4124,0.418,0.4182,0.4211,0.4278,0.4331,0.4399,0.4318,0.4382,0.4385,0.429,0.4402,0.4204,0.4305,0.4492,0.4495,0.4497,0,0.3589,0.3651,0.3729,0.3818,0.384,0.3884,0.3959,0.4003,0.409,0.4128,0.4204,0.4235,0.4357,0.4324,0.4479,0.4425,0.4465,0.4502,0.4507,0.4397,0.4321,0.425,0.4329,0.4236,0.4523,0.4521,0.4519,0,0.355,0.3661,0.3722,0.3757,0.3862,0.3897,0.3944,0.4022,0.4057,0.4168,0.422,0.4334,0.4408,0.448,0.4571,0.4528,0.4728,0.4661,0.4619,0.4613,0.4447,0.4419,0.444,0.4768,0.4767,0.4767,0.4766,0,0.3553,0.3602,0.371,0.3745,0.3814,0.3878,0.3937,0.4001,0.4084,0.4143,0.4245,0.4321,0.4453,0.4567,0.4615,0.4691,0.4763,0.4667,0.4652,0.4473,0.4447,0.4357,0.4322,0.4772,0.4771,0.477,0.4769,0,0.3502,0.357,0.3643,0.376,0.3795,0.3831,0.3923,0.3954,0.4057,0.4142,0.4183,0.4348,0.4499,0.4624,0.4769,0.4748,0.4684,0.482,0.4609,0.4566,0.4367,0.4344,0.4192,0.4072,0.4776,0.4774,0.4773,0,0.3499,0.3533,0.3634,0.3659,0.3716,0.3783,0.3819,0.3924,0.3959,0.4144,0.4179,0.4371,0.4478,0.4673,0.468,0.4758,0.4658,0.4607,0.4474,0.4363,0.4329,0.4153,0.4051,0.4309,0.4305,0.4301,0.4297,0,0.3499,0.3513,0.3556,0.3612,0.3654,0.3703,0.3771,0.3798,0.3919,0.4003,0.4112,0.4214,0.4408,0.4399,0.4525,0.4531,0.4361,0.4522,0.4463,0.4024,0.378,0.3653,0.4228,0.4262,0.4265,0.4268,0.427,0.4271,0.3475,0.3486,0.3515,0.3553,0.3589,0.3608,0.3603,0.3665,0.3708,0.379,0.3961,0.4043,0.4151,0.4266,0.4255,0.4107,0.4102,0.3985,0.3992,0.3845,0.3632,0.4134,0.4103,0.4105,0.4107,0.4109,0.4111,0,0.3443,0.3441,0.3466,0.3479,0.3466,0.3521,0.3547,0.3502,0.3495,0.3619,0.3687,0.3745,0.376,0.3824,0.3761,0.3625,0.3429,0.354,0.3269,0.3215,0.3724,0.3606,0.3394,0.3394,0.3394,0.3394,0.3394,0.3394,0.3417,0.3393,0.3392,0.3349,0.3353,0.3289,0.3271,0.3218,0.3251,0.3224,0.3228,0.3325,0.3478,0.3514,0.3393,0.3302,0.3077,0.2894,0.2936,0.3332,0.3374,0.3413,0.3294,0.302,0.302,0.2247,0.2241,0.2237]},{"header":{"parameterUnit":"m.s-1","parameterCategory":2,"la1":30.2991,"la2":30.254,"lo1":-89.0895,"lo2":-89.0444,"dy":0.0017,"dx":0.0017,"nx":28,"ny":28,"refTime":"2023-09-08T21:00:00:Z","depth":"0","parameterNumber":3,"parameterNumberName":"V-component_of_CURRENTS"},"data":[0,0,0,0,0,0,0,0,0,0,0,0,0,0,0,0,0,0,0,0,0,0,0,0,0,0,0,0,0,0,0,0,0,0,0,0,0,0,0,0,0,0,0,0,0,0,0,0,0,0,0,0,0,0,0,0,0,0,-0.0022,-0.0023,0,-0.0071,-0.0072,-0.0073,-0.0123,-0.0124,-0.0125,-0.0126,-0.019,-0.0191,-0.0193,0,0,0,0,0,0,0,0,0,0,0,0,0,0.0054,0.0053,-0.0022,-0.0023,-0.0024,-0.0071,-0.0072,-0.0073,-0.0123,-0.0124,-0.0125,-0.0126,-0.019,-0.0191,-0.0193,0,0,0,0,0,0,0,0,0,0,0,0,0,0.0014,0.0052,-0.0022,-0.0055,-0.0058,-0.0071,-0.0072,-0.0073,-0.0123,-0.0124,-0.0125,-0.0126,-0.019,-0.0191,-0.0193,-0.0182,0,0,-0.0198,-0.0198,0,0,0,0,0,0,0,0,0.0017,0.0012,-0.0049,-0.0052,-0.0056,-0.0092,-0.0069,-0.011,-0.0123,-0.0098,-0.0126,-0.0127,-0.0158,-0.0163,-0.0169,-0.0185,-0.0187,-0.0198,-0.0199,-0.02,-0.02,0,0,0,0,0,0,0,0.0019,0.0014,-0.0042,-0.005,-0.0054,-0.0058,-0.0065,-0.0077,-0.0122,-0.0101,-0.0104,-0.011,-0.0161,-0.0167,-0.0171,-0.0188,-0.0198,-0.0199,-0.02,-0.0201,-0.0262,-0.0262,0,0,0,0,0,0,0.0025,0.0016,-0.004,-0.0043,-0.0022,-0.0058,-0.0066,-0.008,-0.0122,-0.0129,-0.0109,-0.0112,-0.0164,-0.0169,-0.0174,-0.0195,-0.02,-0.0201,-0.0202,-0.0261,-0.0262,-0.0262,0,0,0,0,0,0,0.0027,0.002,-0.0038,-0.0014,-0.0022,-0.0059,-0.0073,-0.008,-0.0089,-0.0128,-0.0136,-0.011,-0.0165,-0.0171,-0.0194,-0.0197,-0.0202,-0.0203,-0.026,-0.0261,-0.0262,-0.0217,0,0,0,0,0,0,0.0029,0.0021,0.0023,-0.0014,-0.0023,-0.0042,-0.0073,-0.008,-0.009,-0.0095,-0.0131,-0.0139,-0.0167,-0.0192,-0.0196,-0.0199,-0.0204,-0.0259,-0.0261,-0.0262,-0.0218,-0.0216,-0.0215,0,0,0,0,0,0.0032,0.0041,0.0023,0.0017,-0.0023,-0.0042,-0.0046,-0.0075,-0.0089,-0.0087,-0.0122,-0.0138,-0.0203,-0.0193,-0.0198,-0.0202,-0.0259,-0.026,-0.0262,-0.0218,-0.0216,-0.0215,0,0,0,0,0,0,0.0077,0.0035,0.0015,0.0011,-0.0013,-0.005,-0.0045,-0.0068,-0.0092,-0.0096,-0.0136,-0.0146,-0.017,-0.0192,-0.018,-0.0226,-0.0237,-0.0239,-0.0202,-0.0201,-0.02,-0.0156,-0.0206,0,0,0,0,0,0.0087,0.008,0.004,0.0037,0.0029,-0.0006,-0.0014,-0.0037,-0.0067,-0.0078,-0.0108,-0.0144,-0.0179,-0.0193,-0.0223,-0.0236,-0.0236,-0.0247,-0.0245,-0.0244,-0.0215,-0.0242,-0.0239,-0.0267,-0.0267,-0.0267,0,0,0.0102,0.0081,0.0076,0.0047,0.0028,0.002,-0.0013,-0.0022,-0.0029,-0.008,-0.0093,-0.0135,-0.0182,-0.0208,-0.0221,-0.0226,-0.0235,-0.0246,-0.0244,-0.0215,-0.0243,-0.024,-0.0237,-0.0268,-0.0268,-0.0268,0,0,0.0135,0.0112,0.0119,0.0101,0.0076,0.0052,0.0051,0.0014,-0.0,-0.0021,-0.0068,-0.011,-0.0149,-0.0192,-0.0217,-0.0223,-0.0227,-0.0238,-0.0193,-0.022,-0.0217,-0.0215,-0.0194,-0.019,-0.0237,-0.0237,-0.0237,0,0.0157,0.0152,0.0121,0.0123,0.0116,0.0068,0.0075,0.0053,0.0012,0.0014,-0.0019,-0.009,-0.0142,-0.0174,-0.0188,-0.0218,-0.0212,-0.0193,-0.0215,-0.0213,-0.0211,-0.0191,-0.0187,-0.0235,-0.0236,-0.0236,-0.0236,0,0.0194,0.0186,0.0192,0.0172,0.0164,0.0162,0.0125,0.0123,0.0095,0.0069,0.004,-0.0039,-0.0075,-0.0118,-0.0155,-0.0172,-0.0163,-0.0209,-0.021,-0.0205,-0.0185,-0.0182,-0.0233,-0.0233,-0.0234,-0.0234,0,0,0.0247,0.0223,0.0224,0.0226,0.019,0.0192,0.0191,0.0183,0.0208,0.014,0.0161,0.0055,0.0022,-0.0009,-0.0075,-0.0112,-0.0112,-0.0144,-0.0147,-0.0105,-0.0124,-0.01,-0.0094,-0.0158,-0.0158,-0.0157,-0.0108,0,0.0284,0.0305,0.0278,0.0294,0.03,0.0268,0.0278,0.0266,0.0252,0.0262,0.0175,0.0153,0.0059,0.0041,-0.001,-0.008,-0.0103,-0.0118,-0.015,-0.0149,-0.0116,-0.0091,-0.0072,-0.0025,-0.0105,-0.0104,-0.0104,0,0.033,0.0335,0.0367,0.0365,0.0369,0.0377,0.0411,0.0413,0.0409,0.04,0.0364,0.0303,0.0241,0.0151,0.0054,0.0057,-0.0017,-0.0082,-0.0083,-0.0067,-0.012,-0.005,-0.0016,-0.0199,-0.0099,-0.0099,-0.01,0,0.0399,0.0396,0.0432,0.0429,0.0424,0.0452,0.0456,0.0466,0.0506,0.0496,0.0535,0.0433,0.0414,0.0291,0.0162,0.0111,0.0082,-0.0017,-0.0057,-0.0055,-0.0046,-0.0044,-0.0176,-0.0075,-0.0075,-0.0075,-0.0075,0,0.045,0.0471,0.0472,0.0493,0.0558,0.0525,0.0607,0.0609,0.0641,0.0729,0.0617,0.0667,0.0448,0.04,0.0244,0.0144,0.0147,-0.0016,-0.004,-0.003,-0.0026,-0.0192,-0.0299,-0.0073,-0.0074,-0.0074,-0.0074,0,0.0514,0.051,0.0559,0.0579,0.0596,0.0651,0.0712,0.0779,0.0793,0.0914,0.0919,0.0861,0.0806,0.0623,0.0451,0.0282,0.0062,0.011,0.0167,0.0148,-0.0104,-0.0207,-0.0309,-0.0389,0.0056,0.0057,0.0058,0,0.0543,0.0578,0.0645,0.0702,0.0717,0.0786,0.0851,0.0865,0.0951,0.1056,0.1135,0.1107,0.1148,0.0922,0.0605,0.0376,0.0163,0.0204,0.0075,-0.0083,-0.0217,-0.0298,-0.0366,0.0111,0.0112,0.0113,0.0114,0,0.0611,0.065,0.0702,0.0815,0.0899,0.0991,0.1081,0.1172,0.1239,0.1367,0.1518,0.1558,0.135,0.1111,0.0765,0.0566,0.0078,0.0215,0.0017,-0.0195,-0.0257,-0.0355,0.0071,0.0122,0.0121,0.0121,0.012,0.012,0.0682,0.0742,0.0831,0.0936,0.1045,0.1187,0.1284,0.1417,0.1599,0.1815,0.1824,0.1956,0.1542,0.1071,0.0769,0.0187,0.0156,-0.0027,-0.0134,-0.0197,-0.0296,0.0182,0.0214,0.0214,0.0214,0.0213,0.0213,0,0.0761,0.0829,0.0937,0.1079,0.1214,0.1245,0.1435,0.1559,0.1809,0.2048,0.2215,0.2113,0.1637,0.1088,0.0299,-0.0109,-0.0285,-0.0332,-0.0479,-0.0532,-0.013,-0.0154,-0.016,-0.016,-0.0159,-0.0159,-0.0159,-0.0159,0.0815,0.0924,0.0969,0.1192,0.1298,0.1478,0.1593,0.1816,0.2012,0.232,0.2435,0.2475,0.2028,0.0664,-0.0275,-0.0493,-0.0784,-0.0819,-0.0976,-0.0753,-0.0734,-0.0717,-0.0767,-0.0901,-0.0902,-0.1337,-0.1342,-0.1345]}],[{"header":{"parameterUnit":"m.s-1","parameterCategory":2,"la1":30.2991,"la2":30.254,"lo1":-89.0895,"lo2":-89.0444,"dy":0.0017,"dx":0.0017,"nx":28,"ny":28,"refTime":"2023-09-08T21:00:00:Z","depth":"2","parameterNumber":2,"parameterNumberName":"U-component_of_CURRENTS"},"data":[0,0,0,0,0,0,0,0,0,0,0,0,0,0,0,0,0,0,0,0,0,0,0,0,0,0,0,0,0,0,0,0,0,0,0,0,0,0,0,0,0,0,0,0,0,0,0,0,0,0,0,0,0,0,0,0,0,0,0.2644,0.2645,0,0.2732,0.2733,0.2734,0.2756,0.2755,0.2755,0.2754,0.2731,0.2731,0.2731,0,0,0,0,0,0,0,0,0,0,0,0,0,0.26,0.26,0.2644,0.2645,0.2647,0.2732,0.2733,0.2734,0.2756,0.2755,0.2755,0.2754,0.2731,0.2731,0.2731,0,0,0,0,0,0,0,0,0,0,0,0,0,0.2646,0.26,0.2644,0.2668,0.2671,0.2732,0.2733,0.2735,0.2756,0.2755,0.2755,0.2754,0.2731,0.2731,0.2731,0.2745,0,0,0.273,0.273,0,0,0,0,0,0,0,0,0.2643,0.2647,0.2663,0.2667,0.267,0.2733,0.271,0.2733,0.2756,0.2723,0.2754,0.2754,0.2723,0.2723,0.2742,0.2744,0.2743,0.273,0.273,0.273,0.273,0,0,0,0,0,0,0,0.264,0.2645,0.2678,0.2665,0.2669,0.2711,0.2716,0.2715,0.2723,0.2726,0.2728,0.2739,0.2723,0.2742,0.2741,0.2742,0.273,0.273,0.273,0.273,0.28,0.2802,0,0,0,0,0,0,0.2626,0.2641,0.2676,0.2681,0.2656,0.2712,0.2717,0.2713,0.2726,0.2728,0.274,0.274,0.2743,0.2741,0.274,0.2768,0.273,0.273,0.273,0.2798,0.2801,0.2803,0,0,0,0,0,0,0.2624,0.2628,0.2672,0.2665,0.2673,0.2713,0.2709,0.2715,0.2746,0.2738,0.2738,0.2765,0.2742,0.2741,0.2746,0.2767,0.273,0.273,0.2796,0.2799,0.2802,0.2816,0,0,0,0,0,0,0.2622,0.2626,0.2632,0.2663,0.2673,0.2708,0.271,0.2717,0.2754,0.2755,0.2759,0.2756,0.2742,0.2746,0.2745,0.2766,0.273,0.2793,0.2797,0.2801,0.2813,0.2819,0.2824,0,0,0,0,0,0.262,0.2626,0.2631,0.2637,0.2674,0.2709,0.2718,0.2744,0.2756,0.277,0.2773,0.2757,0.277,0.2747,0.2746,0.2766,0.2792,0.2796,0.2801,0.2811,0.2818,0.2824,0,0,0,0,0,0,0.2607,0.263,0.2636,0.2647,0.2676,0.2713,0.2738,0.2757,0.2776,0.2782,0.2768,0.2765,0.2785,0.2781,0.2755,0.2804,0.2784,0.2789,0.2793,0.28,0.2805,0.285,0.2729,0,0,0,0,0,0.2607,0.262,0.2645,0.2658,0.2673,0.2711,0.2735,0.2754,0.2773,0.2784,0.2787,0.2797,0.2805,0.2803,0.2813,0.2827,0.286,0.2848,0.2854,0.2858,0.2898,0.2962,0.2977,0.2818,0.2818,0.2817,0,0,0.2606,0.2623,0.263,0.2658,0.2686,0.271,0.2723,0.2765,0.2795,0.2775,0.2815,0.2817,0.2816,0.2836,0.2845,0.2829,0.2918,0.2864,0.2867,0.2906,0.2968,0.2984,0.2997,0.2821,0.282,0.282,0,0,0.2614,0.2625,0.2641,0.2668,0.2713,0.273,0.2743,0.2788,0.2819,0.2853,0.2852,0.287,0.2881,0.2888,0.289,0.2938,0.295,0.2942,0.2996,0.3056,0.307,0.3082,0.3124,0.314,0.2938,0.2939,0.2939,0,0.2614,0.2626,0.2653,0.268,0.2711,0.2736,0.2768,0.2799,0.2844,0.2883,0.2868,0.2939,0.2913,0.296,0.2967,0.295,0.2988,0.2957,0.3063,0.3076,0.3088,0.3128,0.3146,0.294,0.294,0.2939,0.2939,0,0.2639,0.2649,0.2664,0.2697,0.2738,0.2767,0.2814,0.286,0.2895,0.2928,0.3006,0.3001,0.3055,0.3034,0.3004,0.3086,0.3085,0.3062,0.3039,0.3105,0.3143,0.3161,0.2942,0.2941,0.2941,0.294,0,0,0.2613,0.2668,0.2667,0.2694,0.2753,0.2786,0.2853,0.2919,0.2973,0.3028,0.3115,0.3126,0.3161,0.3171,0.3156,0.3185,0.3263,0.3163,0.3165,0.3195,0.3401,0.3304,0.3314,0.3261,0.3265,0.3268,0.3384,0,0.2615,0.2653,0.2694,0.2737,0.2761,0.2831,0.2886,0.2963,0.3023,0.3105,0.3161,0.3219,0.3203,0.3228,0.3272,0.3262,0.3317,0.3234,0.3344,0.3348,0.3246,0.3334,0.306,0.3134,0.3401,0.3404,0.3407,0,0.2619,0.264,0.2683,0.2762,0.2784,0.2827,0.2947,0.3004,0.3123,0.318,0.3292,0.3336,0.342,0.3381,0.3486,0.344,0.3451,0.3439,0.3443,0.3372,0.3286,0.3118,0.3157,0.3437,0.3434,0.3432,0.343,0,0.2587,0.2638,0.2671,0.2697,0.2782,0.2849,0.2913,0.3033,0.3103,0.3246,0.3315,0.3441,0.3497,0.357,0.3584,0.3547,0.3679,0.3617,0.356,0.3552,0.3353,0.3321,0.3727,0.3727,0.3727,0.3727,0.3726,0,0.2577,0.2594,0.2658,0.2677,0.2737,0.2833,0.2933,0.3015,0.3152,0.3232,0.3363,0.3456,0.3547,0.3635,0.3649,0.3675,0.3756,0.3612,0.3593,0.3347,0.3314,0.3605,0.3589,0.3731,0.373,0.3729,0.3729,0,0.2543,0.2571,0.2606,0.2692,0.2722,0.278,0.2933,0.2999,0.3136,0.3259,0.3315,0.3482,0.3578,0.3665,0.3742,0.3729,0.3763,0.3753,0.3452,0.3396,0.3579,0.3563,0.3708,0.3706,0.3704,0.3702,0.3701,0,0.2525,0.2531,0.2603,0.2618,0.266,0.2755,0.2815,0.2971,0.3046,0.3265,0.331,0.3466,0.3537,0.3647,0.364,0.3681,0.3746,0.3446,0.3322,0.362,0.3587,0.3573,0.356,0.3058,0.3052,0.3047,0.3043,0,0.2483,0.2509,0.255,0.2572,0.2626,0.2689,0.2797,0.2832,0.3009,0.3111,0.3227,0.3307,0.3431,0.3337,0.3402,0.3386,0.3413,0.3339,0.3761,0.3097,0.3014,0.2979,0.2987,0.2996,0.3001,0.3004,0.3007,0.3008,0.2465,0.2463,0.2506,0.2527,0.2576,0.2594,0.2605,0.2697,0.2771,0.2862,0.3028,0.3063,0.3121,0.3062,0.2992,0.2948,0.3173,0.3038,0.3052,0.3072,0.2967,0.2885,0.2823,0.2826,0.2829,0.2832,0.2834,0,0.2421,0.2427,0.2443,0.2451,0.2445,0.2516,0.2562,0.252,0.2516,0.2642,0.2712,0.2548,0.2516,0.2581,0.2446,0.2458,0.2407,0.2354,0.2263,0.2314,0.2358,0.2212,0.187,0.1867,0.1863,0.186,0,0,0.2396,0.2383,0.237,0.2316,0.2314,0.2268,0.2257,0.2208,0.2245,0.2187,0.2211,0.2422,0.2528,0.2172,0.2129,0.1973,0.2117,0.1893,0.2677,0.2622,0.2661,0.2777,0.2614,0,0,0,0,0]},{"header":{"parameterUnit":"m.s-1","parameterCategory":2,"la1":30.2991,"la2":30.254,"lo1":-89.0895,"lo2":-89.0444,"dy":0.0017,"dx":0.0017,"nx":28,"ny":28,"refTime":"2023-09-08T21:00:00:Z","depth":"2","parameterNumber":3,"parameterNumberName":"V-component_of_CURRENTS"},"data":[0,0,0,0,0,0,0,0,0,0,0,0,0,0,0,0,0,0,0,0,0,0,0,0,0,0,0,0,0,0,0,0,0,0,0,0,0,0,0,0,0,0,0,0,0,0,0,0,0,0,0,0,0,0,0,0,0,0,0.019,0.0189,0,0.0136,0.0135,0.0134,0.0099,0.0099,0.0099,0.0099,0.0042,0.0041,0.004,0,0,0,0,0,0,0,0,0,0,0,0,0,0.0216,0.0216,0.019,0.0189,0.0189,0.0136,0.0135,0.0134,0.0099,0.0099,0.0099,0.0099,0.0043,0.0041,0.0039,0,0,0,0,0,0,0,0,0,0,0,0,0,0.0187,0.0216,0.019,0.0166,0.0163,0.0136,0.0135,0.0134,0.0099,0.0099,0.0099,0.0099,0.0043,0.0041,0.0039,0.0029,0,0,0.0033,0.0032,0,0,0,0,0,0,0,0,0.0189,0.0186,0.017,0.0168,0.0165,0.0125,0.0123,0.0099,0.0099,0.0122,0.0099,0.0099,0.0071,0.0066,0.0055,0.0026,0.0024,0.0033,0.0031,0.003,0.003,0,0,0,0,0,0,0,0.0191,0.0188,0.0167,0.0169,0.0166,0.0142,0.0138,0.0118,0.0097,0.012,0.0118,0.0114,0.0069,0.0057,0.0053,0.0023,0.0033,0.0031,0.0029,0.0029,-0.0023,-0.0023,0,0,0,0,0,0,0.0203,0.019,0.0169,0.0165,0.0178,0.0142,0.0137,0.0137,0.0097,0.0091,0.0114,0.0113,0.0061,0.0056,0.0051,0.0063,0.003,0.0028,0.0027,-0.0023,-0.0023,-0.0023,0,0,0,0,0,0,0.0203,0.0201,0.0171,0.0177,0.0172,0.0142,0.0142,0.0136,0.0126,0.0093,0.0087,0.0111,0.006,0.0054,0.0039,0.0059,0.0027,0.0025,-0.0023,-0.0023,-0.0023,0.007,0,0,0,0,0,0,0.0204,0.0202,0.0206,0.0178,0.0172,0.0166,0.0142,0.0135,0.0125,0.0122,0.0088,0.0082,0.006,0.0042,0.0037,0.0056,0.0024,-0.0023,-0.0023,-0.0023,0.0067,0.0073,0.0078,0,0,0,0,0,0.0206,0.0215,0.0206,0.0204,0.0178,0.0166,0.0161,0.0138,0.0125,0.0127,0.0101,0.0083,0.0037,0.0041,0.0034,0.0053,-0.0023,-0.0023,-0.0023,0.0064,0.0072,0.0078,0,0,0,0,0,0,0.0228,0.0212,0.0201,0.0205,0.0191,0.0161,0.0161,0.0143,0.0123,0.0119,0.0086,0.0079,0.0069,0.0043,0.0048,0.0034,0.0003,0.0001,0.0071,0.0078,0.0083,0.0095,0.0022,0,0,0,0,0,0.0236,0.0238,0.0218,0.0221,0.0218,0.0189,0.0181,0.0164,0.0143,0.0134,0.0109,0.008,0.0062,0.0057,0.0029,0.0028,-0.0007,0.0032,0.0038,0.0043,0.0045,0.0003,0.0005,-0.0024,-0.0024,-0.0024,0,0,0.0244,0.0236,0.0237,0.0226,0.0212,0.0221,0.0184,0.0176,0.0181,0.0131,0.0128,0.0096,0.0062,0.0059,0.0053,0.0044,0.0034,0.0042,0.0048,0.0047,0.0003,0.0006,0.0008,-0.0024,-0.0024,-0.0024,0,0,0.0269,0.0258,0.0272,0.0266,0.0252,0.0241,0.0243,0.0216,0.0202,0.0189,0.0158,0.0139,0.0105,0.0094,0.0082,0.0099,0.0058,0.0089,0.0139,0.0099,0.0101,0.0103,0.0075,0.0074,0.01,0.0101,0.0101,0,0.0282,0.0297,0.0274,0.0287,0.0292,0.0257,0.0278,0.0262,0.0231,0.0227,0.0198,0.0148,0.0123,0.0129,0.0137,0.0116,0.0085,0.0125,0.0109,0.0109,0.0109,0.008,0.0077,0.0105,0.0105,0.0104,0.0104,0,0.0317,0.0332,0.0341,0.0353,0.0352,0.0363,0.0344,0.0339,0.0313,0.0294,0.0273,0.0224,0.0201,0.019,0.0172,0.0171,0.0147,0.0117,0.0099,0.0118,0.0086,0.0081,0.0112,0.011,0.0109,0.0107,0,0,0.0346,0.0365,0.0371,0.0394,0.0389,0.04,0.0408,0.0412,0.0429,0.0374,0.0386,0.0338,0.0304,0.0287,0.0255,0.0224,0.0208,0.0182,0.0178,0.0169,0.0126,0.0108,0.01,0.0176,0.0175,0.0174,0.0109,0,0.0386,0.044,0.0429,0.0483,0.0513,0.0489,0.0509,0.0503,0.0481,0.0483,0.0421,0.0414,0.0345,0.0344,0.0298,0.0234,0.0197,0.0229,0.0095,0.0092,0.0085,0.0095,0.0122,0.0065,0.0104,0.0103,0.0102,0,0.0425,0.0462,0.0526,0.0568,0.0578,0.0603,0.0634,0.0643,0.063,0.0608,0.0571,0.0522,0.0484,0.0414,0.0293,0.0316,0.0229,0.0161,0.0157,0.0102,0.0064,0.0047,0.0055,0.0094,0.0095,0.0095,0.0096,0,0.0473,0.0526,0.0588,0.0602,0.0643,0.0667,0.0686,0.0686,0.0711,0.0694,0.0707,0.0624,0.0603,0.0469,0.0328,0.0313,0.0185,0.0146,0.004,0.0038,0.0015,0.0012,0.0046,0.0046,0.0046,0.0046,0.0046,0,0.052,0.0568,0.0624,0.0657,0.0742,0.0736,0.0803,0.0805,0.0822,0.0875,0.0783,0.0798,0.0613,0.0518,0.0365,0.0196,0.0208,0.0049,0.0018,0.0049,0.0049,0.0032,0.0031,0.0044,0.0044,0.0045,0.0045,0,0.0558,0.0592,0.0668,0.0735,0.0767,0.0824,0.0892,0.0936,0.0939,0.1005,0.101,0.0937,0.0811,0.0614,0.0413,0.0263,0.0094,0.0027,0.0083,0.0058,-0.0037,-0.0032,-0.0097,-0.0098,-0.0099,-0.01,-0.0101,0,0.0582,0.0631,0.0732,0.0792,0.0828,0.091,0.0971,0.0998,0.1052,0.1096,0.1142,0.1049,0.0994,0.0686,0.0408,0.0135,0.0091,-0.0022,-0.0057,-0.0028,-0.0052,-0.0046,-0.004,-0.0047,-0.0047,-0.0047,-0.0047,0,0.0633,0.0669,0.0731,0.0858,0.0941,0.104,0.1129,0.1195,0.1241,0.1295,0.1344,0.1307,0.1028,0.0755,0.0382,0.0197,0.0021,-0.0036,-0.002,-0.0013,0.0014,-0.0008,-0.0003,-0.0049,-0.0049,-0.0049,-0.0049,-0.0049,0.0666,0.072,0.0806,0.0924,0.1028,0.1157,0.1241,0.1334,0.144,0.1525,0.1488,0.1432,0.1133,0.0651,0.0332,0.0,0.0013,-0.011,-0.0107,-0.0105,-0.0085,-0.0062,-0.0134,-0.0135,-0.0135,-0.0135,-0.0135,0,0.071,0.077,0.0871,0.1007,0.112,0.1178,0.134,0.1417,0.1548,0.1613,0.1636,0.1348,0.1044,0.0694,0.0207,-0.0084,-0.0105,-0.0182,-0.0142,-0.0137,-0.0134,-0.0115,-0.0173,-0.0174,-0.0175,-0.0176,0,0,0.0735,0.0825,0.0873,0.1058,0.1161,0.1322,0.1421,0.1545,0.1624,0.1666,0.1638,0.1562,0.1149,0.0787,0.0389,0.0108,0.0052,0.0051,0.0115,0.0215,0.0221,-0.0057,-0.0019,0,0,0,0,0]}],[{"header":{"parameterUnit":"m.s-1","parameterCategory":2,"la1":30.2991,"la2":30.254,"lo1":-89.0895,"lo2":-89.0444,"dy":0.0017,"dx":0.0017,"nx":28,"ny":28,"refTime":"2023-09-08T21:00:00:Z","depth":"4","parameterNumber":2,"parameterNumberName":"U-component_of_CURRENTS"},"data":[0,0,0,0,0,0,0,0,0,0,0,0,0,0,0,0,0,0,0,0,0,0,0,0,0,0,0,0,0,0,0,0,0,0,0,0,0,0,0,0,0,0,0,0,0,0,0,0,0,0,0,0,0,0,0,0,0,0,0.1509,0.151,0,0.1582,0.1582,0.1583,0.1624,0.1625,0.1625,0.1626,0.168,0.1682,0.1683,0,0,0,0,0,0,0,0,0,0,0,0,0,0.1434,0.1435,0.1509,0.1511,0.1512,0.1582,0.1582,0.1583,0.1624,0.1625,0.1625,0.1626,0.168,0.1681,0.1683,0,0,0,0,0,0,0,0,0,0,0,0,0,0.148,0.1435,0.1509,0.1543,0.1547,0.1582,0.1582,0.1583,0.1624,0.1625,0.1625,0.1626,0.168,0.1681,0.1683,0.1681,0,0,0.1688,0.1689,0,0,0,0,0,0,0,0,0.1477,0.1482,0.1537,0.1541,0.1545,0.1597,0.1577,0.1616,0.1624,0.1592,0.1626,0.1626,0.1652,0.1656,0.1665,0.1683,0.1685,0.1688,0.1689,0.169,0.169,0,0,0,0,0,0,0,0.1474,0.148,0.1535,0.1538,0.1543,0.1564,0.1571,0.1584,0.1615,0.1595,0.1598,0.1611,0.1654,0.1663,0.1666,0.1686,0.1688,0.1689,0.169,0.1691,0.1794,0.1796,0,0,0,0,0,0,0.1469,0.1477,0.1533,0.1538,0.1515,0.1565,0.1572,0.1577,0.1616,0.1623,0.161,0.1613,0.166,0.1664,0.1668,0.1735,0.169,0.1691,0.1692,0.1792,0.1794,0.1796,0,0,0,0,0,0,0.1467,0.1473,0.153,0.1512,0.1521,0.1566,0.1571,0.1579,0.162,0.1628,0.1635,0.1648,0.1661,0.1666,0.1709,0.1735,0.1692,0.1693,0.179,0.1793,0.1795,0.1825,0,0,0,0,0,0,0.1464,0.1471,0.149,0.1511,0.1522,0.1565,0.1571,0.158,0.1626,0.163,0.1662,0.1666,0.1662,0.1707,0.1711,0.1736,0.1695,0.1788,0.1791,0.1794,0.1822,0.1828,0.1834,0,0,0,0,0,0.1461,0.1478,0.149,0.1498,0.1539,0.1567,0.1574,0.1606,0.1627,0.1646,0.1674,0.1666,0.1731,0.1709,0.1714,0.174,0.1786,0.179,0.1794,0.1819,0.1827,0.1834,0,0,0,0,0,0,0.1455,0.1485,0.1498,0.1524,0.1551,0.1575,0.1606,0.1626,0.1663,0.1681,0.1685,0.1691,0.1742,0.1741,0.1717,0.1783,0.1759,0.1764,0.1776,0.1784,0.179,0.18,0.1696,0,0,0,0,0,0.1461,0.1487,0.1511,0.1537,0.1553,0.1586,0.161,0.1632,0.1661,0.168,0.1704,0.1733,0.1756,0.1771,0.1793,0.1823,0.1841,0.1846,0.1853,0.1857,0.1871,0.193,0.1942,0.1809,0.1809,0.1809,0,0,0.1468,0.149,0.1506,0.154,0.1567,0.1592,0.1602,0.1647,0.1675,0.1679,0.1738,0.176,0.1773,0.181,0.1832,0.1814,0.1903,0.1862,0.1866,0.1878,0.1935,0.1948,0.196,0.1812,0.1811,0.1811,0,0,0.1484,0.1513,0.1537,0.1563,0.161,0.1624,0.1643,0.1685,0.1715,0.1763,0.1778,0.182,0.1855,0.1868,0.1876,0.1932,0.1939,0.1944,0.1975,0.2031,0.2043,0.2053,0.2079,0.2092,0.1939,0.1939,0.194,0,0.1496,0.1516,0.1549,0.1578,0.1603,0.164,0.1665,0.1698,0.1752,0.1786,0.179,0.1871,0.1881,0.1923,0.1943,0.1945,0.1974,0.194,0.2039,0.2049,0.2059,0.2084,0.2097,0.1941,0.1941,0.1941,0.1941,0,0.1515,0.1545,0.1564,0.1606,0.164,0.1669,0.1712,0.1764,0.1805,0.1836,0.1909,0.1926,0.1976,0.1981,0.1978,0.2052,0.2049,0.2043,0.2016,0.2074,0.2097,0.211,0.1944,0.1943,0.1943,0.1942,0,0,0.1504,0.1561,0.1573,0.1593,0.1656,0.168,0.1747,0.1803,0.1862,0.1912,0.1972,0.2016,0.2046,0.2059,0.2064,0.2104,0.2188,0.2109,0.2111,0.2128,0.2308,0.217,0.2171,0.2209,0.2212,0.2214,0.2291,0,0.1506,0.1544,0.1581,0.1628,0.1645,0.1713,0.177,0.1841,0.1903,0.1974,0.201,0.2073,0.2067,0.2102,0.2143,0.2187,0.2228,0.2168,0.2257,0.2259,0.2123,0.2184,0.2223,0.23,0.2303,0.2306,0.2307,0,0.1504,0.153,0.1568,0.1634,0.1653,0.17,0.1808,0.1868,0.198,0.2035,0.2108,0.2142,0.2214,0.2196,0.2303,0.2272,0.2304,0.2323,0.2326,0.2199,0.2146,0.2235,0.2331,0.2329,0.2327,0.2326,0.2324,0,0.1459,0.1518,0.1545,0.1568,0.1655,0.1713,0.1776,0.1899,0.1966,0.2091,0.2153,0.2231,0.2291,0.2347,0.2399,0.2372,0.2505,0.2464,0.2364,0.2353,0.244,0.2428,0.2547,0.2547,0.2547,0.2547,0.2547,0,0.1424,0.1455,0.1535,0.1554,0.1611,0.1701,0.1794,0.1882,0.2012,0.209,0.2188,0.2246,0.2343,0.2418,0.2439,0.2446,0.2547,0.2384,0.2373,0.2448,0.2437,0.2448,0.2435,0.255,0.2549,0.2549,0.2548,0,0.1368,0.142,0.1464,0.156,0.1592,0.1651,0.1791,0.1861,0.2008,0.2114,0.216,0.2298,0.2396,0.2467,0.2563,0.2493,0.2513,0.2493,0.2575,0.2565,0.2306,0.2294,0.2365,0.2361,0.2357,0.2354,0.2352,0,0.1334,0.1349,0.1451,0.1488,0.1538,0.1631,0.1695,0.1844,0.1919,0.2121,0.2155,0.2304,0.2375,0.24,0.248,0.251,0.2486,0.2467,0.237,0.2309,0.2293,0.2286,0.228,0.2347,0.2346,0.2345,0.2344,0,0.1274,0.1332,0.1374,0.1436,0.1506,0.1552,0.1656,0.1695,0.1874,0.202,0.211,0.2161,0.2263,0.2315,0.2373,0.2382,0.2455,0.243,0.2436,0.2344,0.2288,0.2273,0.2271,0.2332,0.2334,0.2335,0.2336,0,0.1244,0.1259,0.1327,0.137,0.1444,0.1453,0.1514,0.1601,0.1689,0.1919,0.1942,0.2103,0.2245,0.2251,0.2297,0.2306,0.2254,0.216,0.2178,0.2192,0.2099,0.1999,0.1959,0,0,0,0,0,0.1195,0.1201,0.1245,0.1282,0.1347,0.1373,0.1478,0.155,0.1717,0.1742,0.1843,0.1932,0.2004,0.2082,0.2054,0.2197,0.2248,0.2152,0.2145,0.2266,0.228,0.2184,0,0,0,0,0,0,0.1164,0.1209,0.1214,0.1196,0.1198,0.124,0.1293,0.14,0.1427,0.1614,0.1671,0.1813,0.1917,0.2011,0.202,0.2042,0.1996,0.2259,0.2254,0.2259,0.2271,0.2282,0.2188,0,0,0,0,0]},{"header":{"parameterUnit":"m.s-1","parameterCategory":2,"la1":30.2991,"la2":30.254,"lo1":-89.0895,"lo2":-89.0444,"dy":0.0017,"dx":0.0017,"nx":28,"ny":28,"refTime":"2023-09-08T21:00:00:Z","depth":"4","parameterNumber":3,"parameterNumberName":"V-component_of_CURRENTS"},"data":[0,0,0,0,0,0,0,0,0,0,0,0,0,0,0,0,0,0,0,0,0,0,0,0,0,0,0,0,0,0,0,0,0,0,0,0,0,0,0,0,0,0,0,0,0,0,0,0,0,0,0,0,0,0,0,0,0,0,0.0224,0.0224,0,0.0203,0.0203,0.0202,0.019,0.019,0.0191,0.0191,0.0157,0.0156,0.0155,0,0,0,0,0,0,0,0,0,0,0,0,0,0.0228,0.0228,0.0224,0.0224,0.0223,0.0203,0.0203,0.0202,0.019,0.019,0.0191,0.0191,0.0157,0.0156,0.0155,0,0,0,0,0,0,0,0,0,0,0,0,0,0.0217,0.0228,0.0224,0.0216,0.0215,0.0203,0.0202,0.0202,0.019,0.019,0.0191,0.0191,0.0157,0.0156,0.0155,0.0144,0,0,0.015,0.0149,0,0,0,0,0,0,0,0,0.0218,0.0217,0.0217,0.0217,0.0216,0.02,0.0192,0.0182,0.019,0.0199,0.0191,0.0191,0.0171,0.0168,0.0163,0.0142,0.0141,0.015,0.0149,0.0148,0.0148,0,0,0,0,0,0,0,0.0219,0.0218,0.0214,0.0217,0.0216,0.0205,0.0204,0.019,0.0183,0.0198,0.0197,0.0197,0.017,0.0164,0.0162,0.014,0.015,0.0149,0.0148,0.0147,0.0126,0.0126,0,0,0,0,0,0,0.0225,0.0219,0.0215,0.0214,0.0218,0.0205,0.0203,0.0204,0.0184,0.0181,0.0197,0.0196,0.0166,0.0163,0.016,0.0174,0.0148,0.0147,0.0146,0.0125,0.0126,0.0126,0,0,0,0,0,0,0.0225,0.0225,0.0216,0.0217,0.0215,0.0205,0.0206,0.0204,0.0204,0.0183,0.018,0.02,0.0166,0.0162,0.0157,0.0171,0.0146,0.0145,0.0125,0.0126,0.0126,0.0183,0,0,0,0,0,0,0.0225,0.0225,0.023,0.0217,0.0215,0.0218,0.0206,0.0203,0.0203,0.0203,0.0184,0.0181,0.0166,0.0159,0.0155,0.0169,0.0144,0.0125,0.0125,0.0126,0.0181,0.0185,0.0189,0,0,0,0,0,0.0226,0.0235,0.023,0.023,0.0221,0.0219,0.0217,0.0209,0.0204,0.0208,0.0195,0.0182,0.016,0.0158,0.0154,0.0167,0.0124,0.0125,0.0126,0.0179,0.0184,0.0189,0,0,0,0,0,0,0.0239,0.0234,0.0229,0.0236,0.0231,0.0218,0.0223,0.0214,0.0207,0.0206,0.0185,0.0181,0.018,0.0164,0.0163,0.0161,0.014,0.014,0.0182,0.0187,0.0191,0.0199,0.0143,0,0,0,0,0,0.0244,0.025,0.0241,0.0247,0.0248,0.0236,0.0234,0.0227,0.0218,0.0215,0.0202,0.0188,0.0178,0.0175,0.0161,0.0162,0.0129,0.0166,0.0171,0.0174,0.0177,0.0142,0.0143,0.0128,0.0128,0.0128,0,0,0.0252,0.0249,0.0253,0.025,0.0247,0.0258,0.0235,0.0238,0.0246,0.0212,0.0221,0.0201,0.018,0.0182,0.018,0.0172,0.016,0.0175,0.0179,0.0179,0.0142,0.0144,0.0145,0.0129,0.0129,0.0129,0,0,0.0271,0.0268,0.0281,0.0282,0.028,0.0275,0.0279,0.0269,0.0266,0.0265,0.0246,0.0234,0.0219,0.021,0.0202,0.022,0.0181,0.0216,0.0249,0.0215,0.0216,0.0217,0.0172,0.0168,0.0222,0.0222,0.0222,0,0.028,0.0298,0.0285,0.0298,0.0309,0.0288,0.031,0.0303,0.0291,0.029,0.0276,0.025,0.0233,0.0235,0.0244,0.0231,0.0199,0.0235,0.0221,0.0221,0.022,0.0174,0.0169,0.0225,0.0225,0.0225,0.0224,0,0.0309,0.0327,0.0337,0.0352,0.0358,0.0373,0.0366,0.0368,0.0358,0.0345,0.0337,0.0306,0.0292,0.0285,0.0272,0.0267,0.0241,0.0228,0.021,0.0225,0.0176,0.0169,0.0229,0.0228,0.0227,0.0227,0,0,0.0322,0.0354,0.0359,0.0383,0.039,0.0402,0.0417,0.0425,0.0436,0.0408,0.0414,0.0389,0.0363,0.0352,0.0328,0.03,0.0269,0.027,0.0267,0.023,0.0184,0.0164,0.0155,0.0255,0.0254,0.0254,0.0148,0,0.0353,0.04,0.0405,0.0455,0.0482,0.0476,0.0497,0.0495,0.0482,0.0479,0.0436,0.043,0.0392,0.0388,0.0354,0.0293,0.0256,0.0298,0.0171,0.0167,0.0152,0.0149,0.0252,0.0143,0.0142,0.0141,0.014,0,0.0379,0.0413,0.0471,0.0519,0.0531,0.0557,0.0586,0.06,0.0583,0.0569,0.054,0.0499,0.0462,0.0425,0.0318,0.0346,0.0272,0.0214,0.0208,0.0167,0.0137,0.0125,0.0128,0.0129,0.013,0.0131,0.0131,0,0.0397,0.0456,0.0512,0.0529,0.0577,0.0605,0.063,0.0629,0.0649,0.0626,0.0623,0.0558,0.0531,0.0432,0.0312,0.0315,0.018,0.0167,0.0073,0.0069,0.0093,0.0094,0.0084,0.0084,0.0084,0.0084,0.0085,0,0.0424,0.047,0.0533,0.0563,0.0635,0.0649,0.0704,0.0712,0.0722,0.0744,0.0677,0.0663,0.0531,0.0437,0.0323,0.0176,0.0183,0.0074,0.0043,0.0118,0.0123,0.0088,0.009,0.008,0.0081,0.0082,0.0083,0,0.0434,0.0475,0.0542,0.0614,0.0646,0.0695,0.0768,0.0799,0.0802,0.0825,0.0822,0.074,0.0612,0.0463,0.0294,0.0195,0.0056,-0.0,0.0083,0.006,-0.0037,-0.0031,-0.0115,-0.0117,-0.0118,-0.0119,-0.012,0,0.0443,0.048,0.0579,0.0628,0.0669,0.0747,0.08,0.0839,0.087,0.0866,0.0877,0.0769,0.069,0.0436,0.0275,0.0043,0.0011,-0.0067,-0.0046,-0.0036,-0.0057,-0.0049,-0.0041,-0.0122,-0.0122,-0.0123,-0.0123,0,0.0458,0.0494,0.0551,0.0653,0.0728,0.0811,0.0887,0.0918,0.0954,0.0958,0.0915,0.0783,0.0633,0.0434,0.0249,0.0085,-0.0016,-0.0081,-0.0079,-0.0061,-0.0045,-0.0063,-0.0054,-0.0128,-0.0127,-0.0127,-0.0126,0,0.0466,0.0504,0.0579,0.067,0.0764,0.0847,0.089,0.0933,0.097,0.097,0.095,0.0794,0.0708,0.0454,0.0287,0.012,0.0077,0.0027,0.0022,0.0025,0.0098,0.014,0.0086,0,0,0,0,0,0.0472,0.0515,0.0592,0.0691,0.0781,0.0843,0.0936,0.0969,0.1007,0.0986,0.0973,0.0834,0.0584,0.0476,0.0305,0.0248,0.0038,0.004,-0.0025,-0.0152,-0.0147,-0.0088,0,0,0,0,0,0,0.0475,0.0543,0.0584,0.0692,0.076,0.0866,0.0929,0.096,0.0949,0.0958,0.083,0.0781,0.0538,0.0678,0.0297,0.0246,0.018,-0.0071,-0.0075,-0.0155,-0.015,-0.0146,-0.0083,0,0,0,0,0]}]]